Weather History for PAUN - February, 2012

Change the Weather History Date:

Sunday, February 5, 2012

  Actual Average Record
Temperature  
Mean Temperature 22 °F -  
Max Temperature 26 °F 13 °F 42 °F (2003)
Min Temperature 19 °F 0 °F -45 °F (1999)
Degree Days  
Heating Degree Days 42    
Moisture  
Dew Point 11 °F    
Average Humidity 61    
Maximum Humidity 74    
Minimum Humidity 50    
Precipitation  
Precipitation 0.00 in - - ()
Sea Level Pressure  
Sea Level Pressure 29.53 in    
Wind  
Wind Speed 32 mph (East)    
Max Wind Speed 43 mph    
Max Gust Speed 48 mph    
Visibility 8 miles    
Events      
Averages and records for this station are not official NWS values.
T = Trace of Precipitation, MM = Missing Value Source: NWS Daily Summary

Daily Weather History Graph

Daily Weather History Graph

Search for Another Location

Airport or City:

Trip Planner

Search our weather history database for the weather conditions in past years. The results will help you decide how hot, cold, wet, or windy it might be!

Date:

Astronomy

Feb. 05, 2012 Rise Set
Actual Time 10:10 AM AKST 5:45 PM AKST
Civil Twilight 9:15 AM AKST 6:39 PM AKST
Nautical Twilight 8:18 AM AKST 7:37 PM AKST
Astronomical Twilight 7:23 AM AKST 8:32 PM AKST
Moon 3:29 PM AKST (2/5) 9:01 AM AKST (2/5)
Length of Visible Light 9h 24m
Length of Day
7h 35m
Waxing Gibbous, 95% of the Moon is Illuminated
Feb 5
Waxing Gibbous
Feb 7
Full
Feb 14
Last Quarter
Feb 21
New
Feb 29
First Quarter

Hourly Weather History & Observations

Time (AKST) Temp. Windchill Dew Point Humidity Pressure Visibility Wind Dir Wind Speed Gust Speed Precip Events Conditions
12:16 AM 19.4 °F 0.8 °F 10.4 °F 68% 29.63 in 8.0 mi East 28.8 mph 39.1 mph N/A   Unknown
12:36 AM 21.2 °F 1.7 °F 12.2 °F 68% 29.63 in 7.0 mi East 35.7 mph 43.7 mph N/A   Unknown
12:56 AM 19.4 °F 0.2 °F 10.4 °F 68% 29.63 in 6.0 mi ENE 31.1 mph 44.9 mph N/A   Unknown
1:16 AM 19.4 °F 0.8 °F 8.6 °F 63% 29.64 in 10.0 mi East 28.8 mph 35.7 mph N/A   Unknown
1:36 AM 19.4 °F 1.4 °F 8.6 °F 63% 29.64 in 9.0 mi East 26.5 mph 36.8 mph N/A   Unknown
1:56 AM 19.4 °F 0.5 °F 8.6 °F 63% 29.63 in 10.0 mi East 29.9 mph 35.7 mph N/A   Unknown
2:16 AM 19.4 °F 0.2 °F 8.6 °F 63% 29.64 in 8.0 mi East 31.1 mph 43.7 mph N/A   Unknown
2:36 AM 21.2 °F 1.9 °F 8.6 °F 58% 29.62 in 7.0 mi East 34.5 mph 42.6 mph N/A   Unknown
2:56 AM 23.0 °F 4.9 °F 10.4 °F 59% 29.61 in 8.0 mi East 32.2 mph 43.7 mph N/A   Unknown
3:16 AM 23.0 °F 4.9 °F 8.6 °F 54% 29.60 in 8.0 mi East 32.2 mph 40.3 mph N/A   Unknown
3:36 AM 24.8 °F 6.6 °F 15.8 °F 69% 29.58 in 2.5 mi ESE 35.7 mph 48.3 mph N/A   Overcast
3:56 AM 21.2 °F 0.3 °F 12.2 °F 68% 29.61 in 1.5 mi East 42.6 mph 48.3 mph N/A   Overcast
4:16 AM 21.2 °F 1.4 °F 12.2 °F 68% 29.61 in 1.0 mi ESE 36.8 mph 44.9 mph N/A   Overcast
4:36 AM 19.4 °F -1.3 °F 12.2 °F 74% 29.59 in 0.8 mi ESE 38.0 mph 44.9 mph N/A   Overcast
4:56 AM 19.4 °F -1.6 °F 12.2 °F 74% 29.57 in 0.5 mi ESE 39.1 mph 46.0 mph N/A   Overcast
5:16 AM 19.4 °F -1.6 °F 12.2 °F 74% 29.57 in 1.0 mi East 39.1 mph 48.3 mph N/A   Overcast
5:36 AM 19.4 °F -0.6 °F 10.4 °F 68% 29.58 in 3.0 mi East 34.5 mph 39.1 mph N/A   Overcast
5:56 AM 19.4 °F -0.6 °F 10.4 °F 68% 29.57 in 5.0 mi East 34.5 mph 39.1 mph N/A   Unknown
6:16 AM 19.4 °F 0.2 °F 10.4 °F 68% 29.58 in 10.0 mi East 31.1 mph - N/A   Unknown
6:36 AM 19.4 °F 0.2 °F 10.4 °F 68% 29.56 in 10.0 mi East 31.1 mph 35.7 mph N/A   Unknown
6:56 AM 21.2 °F 2.2 °F 10.4 °F 63% 29.55 in 9.0 mi East 33.4 mph 40.3 mph N/A   Unknown
7:16 AM 21.2 °F 2.7 °F 10.4 °F 63% 29.55 in 10.0 mi East 31.1 mph - N/A   Unknown
7:36 AM 21.2 °F 1.9 °F 10.4 °F 63% 29.53 in 10.0 mi East 34.5 mph 38.0 mph N/A   Unknown
7:56 AM 21.2 °F 1.4 °F 10.4 °F 63% 29.52 in 9.0 mi East 36.8 mph 43.7 mph N/A   Unknown
8:16 AM 21.2 °F 1.9 °F 10.4 °F 63% 29.53 in 5.0 mi East 34.5 mph 47.2 mph N/A   Unknown
8:36 AM 21.2 °F 0.9 °F 10.4 °F 63% 29.50 in 6.0 mi East 39.1 mph 44.9 mph N/A   Unknown
8:56 AM 23.0 °F 4.1 °F 8.6 °F 54% 29.51 in 10.0 mi East 35.7 mph 42.6 mph N/A   Unknown
9:16 AM 23.0 °F 5.4 °F 8.6 °F 54% 29.53 in 10.0 mi East 29.9 mph 34.5 mph N/A   Unknown
9:36 AM 24.8 °F 8.1 °F 10.4 °F 54% 29.53 in 10.0 mi East 28.8 mph 35.7 mph N/A   Unknown
9:56 AM 24.8 °F 9.0 °F 8.6 °F 50% 29.52 in 10.0 mi East 25.3 mph - N/A   Unknown
10:16 AM 23.0 °F 6.6 °F 8.6 °F 54% 29.50 in 10.0 mi East 25.3 mph 31.1 mph N/A   Unknown
10:36 AM 23.0 °F 5.7 °F 10.4 °F 59% 29.49 in 10.0 mi East 28.8 mph - N/A   Mostly Cloudy
10:56 AM 24.8 °F 8.7 °F 10.4 °F 54% 29.51 in 10.0 mi East 26.5 mph 34.5 mph N/A   Mostly Cloudy
11:16 AM 24.8 °F 8.7 °F 10.4 °F 54% 29.52 in 10.0 mi East 26.5 mph 35.7 mph N/A   Mostly Cloudy
11:36 AM 24.8 °F 10.3 °F 10.4 °F 54% 29.54 in 10.0 mi East 20.7 mph 29.9 mph N/A   Mostly Cloudy
11:56 AM 23.0 °F 7.6 °F 8.6 °F 54% 29.52 in 10.0 mi East 21.9 mph 26.5 mph N/A   Partly Cloudy
12:16 PM 24.8 °F 7.9 °F 10.4 °F 54% 29.50 in 10.0 mi East 29.9 mph 35.7 mph N/A   Clear
12:36 PM 23.0 °F 6.9 °F 10.4 °F 59% 29.51 in 9.0 mi ESE 24.2 mph - N/A   Mostly Cloudy
12:56 PM 23.0 °F 6.6 °F 10.4 °F 59% 29.50 in 10.0 mi ESE 25.3 mph - N/A   Overcast
1:16 PM 24.8 °F 9.0 °F 10.4 °F 54% 29.50 in 10.0 mi ESE 25.3 mph - N/A   Overcast
1:36 PM 24.8 °F 7.3 °F 12.2 °F 59% 29.49 in 10.0 mi ESE 32.2 mph 35.7 mph N/A   Overcast
1:56 PM 24.8 °F 7.6 °F 12.2 °F 59% 29.49 in 1.8 mi ESE 31.1 mph 36.8 mph N/A   Overcast
2:16 PM 23.0 °F 5.1 °F 15.8 °F 74% 29.47 in 0.8 mi East 31.1 mph 34.5 mph N/A   Overcast
2:36 PM 24.8 °F 7.9 °F 15.8 °F 69% 29.46 in 3.0 mi East 29.9 mph 35.7 mph N/A   Overcast
2:56 PM 24.8 °F 7.6 °F 15.8 °F 69% 29.45 in 10.0 mi ESE 31.1 mph 35.7 mph N/A   Overcast
3:16 PM 26.6 °F 9.8 °F 12.2 °F 55% 29.43 in 10.0 mi East 32.2 mph 35.7 mph N/A   Overcast
3:36 PM 26.6 °F 11.4 °F 12.2 °F 55% 29.44 in 10.0 mi East 25.3 mph 35.7 mph N/A   Overcast
3:56 PM 24.8 °F 10.3 °F 10.4 °F 54% 29.45 in 10.0 mi East 20.7 mph 31.1 mph N/A   Overcast
4:16 PM 24.8 °F 7.9 °F 8.6 °F 50% 29.41 in 10.0 mi East 29.9 mph - N/A   Overcast
4:36 PM 24.8 °F 7.3 °F 10.4 °F 54% 29.40 in 10.0 mi East 32.2 mph 40.3 mph N/A   Overcast
4:56 PM 24.8 °F 6.4 °F 10.4 °F 54% 29.40 in 10.0 mi East 36.8 mph 41.4 mph N/A   Overcast
5:16 PM 23.0 °F 4.4 °F 10.4 °F 59% 29.41 in 4.0 mi East 34.5 mph - N/A   Overcast
5:36 PM 23.0 °F 4.6 °F 8.6 °F 54% 29.41 in 10.0 mi East 33.4 mph 39.1 mph N/A   Overcast
5:56 PM 24.8 °F 7.1 °F 8.6 °F 50% 29.41 in 10.0 mi East 33.4 mph - N/A   Overcast
6:16 PM 23.0 °F 4.6 °F 8.6 °F 54% 29.42 in 10.0 mi East 33.4 mph 38.0 mph N/A   Overcast
6:36 PM 23.0 °F 5.1 °F 8.6 °F 54% 29.42 in 10.0 mi East 31.1 mph 34.5 mph N/A   Overcast
6:56 PM 21.2 °F 0.9 °F 8.6 °F 58% 29.40 in 4.0 mi ESE 39.1 mph 48.3 mph N/A   Overcast
7:16 PM 21.2 °F 0.9 °F 10.4 °F 63% 29.41 in 5.0 mi ESE 39.1 mph 43.7 mph N/A   Overcast
7:36 PM 23.0 °F 4.1 °F 10.4 °F 59% 29.44 in 9.0 mi East 35.7 mph 42.6 mph N/A   Overcast
7:56 PM 24.8 °F 7.1 °F 10.4 °F 54% 29.45 in 10.0 mi East 33.4 mph 43.7 mph N/A   Overcast
8:16 PM 24.8 °F 7.1 °F 10.4 °F 54% 29.46 in 10.0 mi ESE 33.4 mph 42.6 mph N/A   Overcast
8:36 PM 24.8 °F 7.1 °F 10.4 °F 54% 29.45 in 10.0 mi East 33.4 mph 40.3 mph N/A   Overcast
8:56 PM 24.8 °F 8.7 °F 10.4 °F 54% 29.47 in 10.0 mi East 26.5 mph 39.1 mph N/A   Overcast
9:16 PM 26.6 °F 11.4 °F 12.2 °F 55% 29.48 in 10.0 mi ESE 25.3 mph 29.9 mph N/A   Overcast
9:36 PM 26.6 °F 10.3 °F 10.4 °F 51% 29.48 in 10.0 mi East 29.9 mph 38.0 mph N/A   Overcast
9:56 PM 26.6 °F 11.1 °F 10.4 °F 51% 29.49 in 10.0 mi East 26.5 mph - N/A   Overcast
10:16 PM 26.6 °F 10.3 °F 12.2 °F 55% 29.50 in 10.0 mi East 29.9 mph 35.7 mph N/A   Overcast
10:36 PM 28.4 °F 12.7 °F 12.2 °F 51% 29.52 in 10.0 mi East 29.9 mph 36.8 mph N/A   Overcast
10:56 PM 28.4 °F 13.3 °F 12.2 °F 51% 29.53 in 10.0 mi East 27.6 mph 32.2 mph N/A   Overcast
11:16 PM 28.4 °F 12.5 °F 12.2 °F 51% 29.53 in 10.0 mi East 31.1 mph - N/A   Overcast
11:36 PM 28.4 °F 12.5 °F 12.2 °F 51% 29.54 in 10.0 mi East 31.1 mph 34.5 mph N/A   Overcast
11:56 PM 26.6 °F 10.0 °F 12.2 °F 55% 29.55 in 10.0 mi East 31.1 mph 36.8 mph N/A   Overcast